QPF
0.00 0.00 0.00 0.00 0.00 0.00 0.00 0.00 0.00 0.01 0.02 0.04 0.07 0.06 0.03 0.02 0.02 0.02 0.01 0.01 0.01 0.01 0.03 0.02 0.02 0.01 0.02 0.02 0.02 0.03 0.02 0.02 0.02 0.01 0.01 0.01 0.02 0.03 0.03 0.03 0.03 0.04 0.03 0.03 0.02 0.02 0.03 0.04 0.04
0.01 0.00 0.00 0.00 0.00 0.00 0.00 0.00 0.00 0.01 0.02 0.04 0.08 0.06 0.04 0.03 0.02 0.01 0.01 0.01 0.01 0.02 0.02 0.02 0.02 0.03 0.02 0.02 0.02 0.03 0.02 0.02 0.02 0.01 0.01 0.01 0.01 0.02 0.03 0.03 0.02 0.03 0.04 0.05 0.04 0.04 0.06 0.05 0.05
0.00 0.00 0.01 0.00 0.00 0.00 0.00 0.00 0.01 0.02 0.02 0.04 0.09 0.07 0.06 0.04 0.02 0.02 0.03 0.02 0.02 0.02 0.02 0.03 0.04 0.03 0.03 0.02 0.02 0.03 0.02 0.01 0.02 0.01 0.01 0.01 0.01 0.01 0.02 0.02 0.02 0.02 0.04 0.06 0.06 0.06 0.05 0.06 0.06
0.00 0.01 0.01 0.00 0.00 0.00 0.00 0.00 0.01 0.03 0.03 0.04 0.05 0.11 0.09 0.05 0.03 0.02 0.02 0.02 0.02 0.02 0.03 0.04 0.05 0.03 0.03 0.03 0.02 0.02 0.02 0.01 0.01 0.01 0.02 0.02 0.02 0.02 0.01 0.02 0.02 0.03 0.03 0.03 0.04 0.06 0.06 0.05 0.05
0.00 0.01 0.01 0.00 0.00 0.00 0.00 0.01 0.01 0.02 0.02 0.02 0.05 0.09 0.08 0.05 0.02 0.02 0.02 0.01 0.01 0.02 0.03 0.04 0.05 0.04 0.04 0.03 0.03 0.02 0.02 0.02 0.01 0.01 0.01 0.02 0.02 0.02 0.03 0.03 0.02 0.02 0.03 0.03 0.04 0.04 0.04 0.04 0.06
0.01 0.01 0.01 0.00 0.00 0.01 0.01 0.01 0.01 0.01 0.01 0.01 0.02 0.03 0.04 0.04 0.04 0.03 0.02 0.02 0.02 0.03 0.03 0.04 0.05 0.05 0.04 0.03 0.02 0.02 0.02 0.02 0.01 0.01 0.02 0.02 0.03 0.02 0.03 0.03 0.03 0.03 0.03 0.03 0.05 0.06 0.05 0.04 0.04
0.01 0.01 0.01 0.01 0.01 0.01 0.01 0.02 0.02 0.01 0.01 0.01 0.02 0.03 0.03 0.03 0.04 0.05 0.05 0.05 0.03 0.03 0.03 0.04 0.05 0.06 0.06 0.05 0.03 0.03 0.03 0.02 0.02 0.01 0.02 0.02 0.03 0.04 0.03 0.04 0.04 0.04 0.03 0.03 0.06 0.06 0.06 0.05 0.05
0.01 0.01 0.01 0.00 0.01 0.01 0.01 0.01 0.01 0.00 0.01 0.01 0.02 0.03 0.03 0.03 0.03 0.04 0.07 0.08 0.07 0.04 0.02 0.03 0.05 0.06 0.08 0.10 0.05 0.04 0.04 0.04 0.03 0.03 0.03 0.03 0.03 0.05 0.06 0.05 0.05 0.04 0.04 0.04 0.05 0.07 0.07 0.07 0.06
0.01 0.00 0.00 0.00 0.00 0.00 0.01 0.01 0.01 0.00 0.00 0.01 0.01 0.02 0.02 0.02 0.02 0.02 0.02 0.03 0.04 0.03 0.03 0.03 0.03 0.04 0.07 0.10 0.06 0.04 0.04 0.05 0.05 0.03 0.03 0.03 0.03 0.05 0.05 0.06 0.05 0.05 0.06 0.05 0.05 0.06 0.07 0.07 0.06
0.00 0.00 0.00 0.00 0.00 0.00 0.01 0.01 0.01 0.01 0.01 0.01 0.01 0.02 0.03 0.03 0.02 0.01 0.02 0.02 0.02 0.01 0.02 0.02 0.03 0.04 0.06 0.07 0.05 0.04 0.03 0.04 0.05 0.05 0.04 0.03 0.03 0.05 0.04 0.05 0.06 0.06 0.07 0.06 0.06 0.06 0.08 0.07 0.05
0.00 0.00 0.00 0.01 0.00 0.00 0.00 0.01 0.01 0.02 0.02 0.01 0.02 0.03 0.03 0.04 0.03 0.03 0.02 0.02 0.02 0.01 0.01 0.01 0.02 0.03 0.04 0.04 0.04 0.04 0.03 0.03 0.03 0.04 0.05 0.04 0.03 0.05 0.05 0.04 0.04 0.05 0.06 0.05 0.05 0.05 0.04 0.03 0.02
0.00 0.01 0.01 0.01 0.01 0.01 0.00 0.01 0.02 0.03 0.03 0.02 0.03 0.03 0.04 0.05 0.05 0.04 0.03 0.02 0.02 0.01 0.01 0.01 0.02 0.02 0.03 0.03 0.03 0.04 0.03 0.03 0.02 0.03 0.04 0.03 0.03 0.03 0.03 0.03 0.04 0.04 0.04 0.03 0.03 0.04 0.02 0.01 0.01
0.01 0.01 0.01 0.02 0.02 0.02 0.01 0.01 0.02 0.04 0.04 0.07 0.08 0.05 0.05 0.06 0.05 0.04 0.03 0.02 0.03 0.02 0.01 0.01 0.01 0.01 0.02 0.03 0.03 0.04 0.03 0.02 0.03 0.03 0.03 0.02 0.02 0.02 0.03 0.04 0.05 0.05 0.04 0.03 0.02 0.02 0.03 0.03 0.02
0.00 0.01 0.01 0.01 0.02 0.02 0.02 0.03 0.06 0.06 0.05 0.06 0.07 0.09 0.08 0.07 0.06 0.05 0.03 0.03 0.03 0.03 0.02 0.03 0.02 0.01 0.01 0.02 0.02 0.04 0.04 0.03 0.03 0.03 0.03 0.03 0.02 0.02 0.02 0.03 0.04 0.05 0.05 0.04 0.02 0.02 0.04 0.05 0.05
0.00 0.00 0.01 0.01 0.01 0.01 0.01 0.03 0.05 0.05 0.05 0.04 0.04 0.05 0.05 0.07 0.08 0.08 0.05 0.03 0.03 0.02 0.02 0.02 0.03 0.04 0.03 0.03 0.02 0.03 0.04 0.05 0.05 0.05 0.05 0.04 0.03 0.02 0.02 0.01 0.02 0.03 0.03 0.04 0.03 0.03 0.03 0.04 0.04
0.00 0.00 0.00 0.01 0.01 0.00 0.00 0.01 0.01 0.02 0.03 0.03 0.03 0.02 0.02 0.04 0.06 0.08 0.05 0.03 0.02 0.02 0.02 0.02 0.04 0.05 0.06 0.05 0.03 0.03 0.04 0.06 0.06 0.05 0.04 0.04 0.05 0.04 0.02 0.01 0.01 0.02 0.02 0.02 0.03 0.03 0.04 0.04 0.03
0.00 0.00 0.00 0.00 0.01 0.00 0.00 0.00 0.00 0.01 0.02 0.02 0.02 0.01 0.02 0.03 0.06 0.07 0.06 0.02 0.01 0.01 0.02 0.03 0.04 0.06 0.08 0.08 0.06 0.05 0.06 0.07 0.08 0.06 0.05 0.04 0.04 0.05 0.04 0.03 0.03 0.03 0.04 0.02 0.02 0.02 0.03 0.04 0.03
0.00 0.00 0.00 0.00 0.01 0.01 0.01 0.00 0.00 0.01 0.02 0.02 0.02 0.02 0.01 0.02 0.04 0.06 0.07 0.04 0.03 0.02 0.03 0.05 0.05 0.06 0.06 0.06 0.07 0.08 0.09 0.08 0.08 0.06 0.05 0.05 0.04 0.05 0.04 0.03 0.03 0.04 0.06 0.05 0.03 0.03 0.03 0.03 0.04
0.00 0.00 0.01 0.01 0.01 0.01 0.02 0.01 0.00 0.01 0.02 0.01 0.01 0.01 0.01 0.02 0.03 0.03 0.05 0.05 0.07 0.06 0.06 0.07 0.05 0.04 0.04 0.05 0.05 0.06 0.06 0.08 0.07 0.06 0.05 0.04 0.04 0.04 0.03 0.03 0.02 0.03 0.04 0.04 0.04 0.03 0.02 0.02 0.03
0.00 0.00 0.01 0.01 0.01 0.01 0.02 0.02 0.01 0.01 0.02 0.01 0.02 0.01 0.01 0.02 0.04 0.04 0.06 0.07 0.09 0.08 0.08 0.09 0.07 0.05 0.05 0.05 0.05 0.05 0.04 0.06 0.06 0.06 0.05 0.03 0.03 0.03 0.04 0.03 0.03 0.04 0.03 0.03 0.02 0.02 0.01 0.01 0.01
0.00 0.00 0.00 0.01 0.01 0.01 0.03 0.03 0.01 0.01 0.02 0.01 0.01 0.01 0.01 0.03 0.04 0.03 0.07 0.09 0.11 0.10 0.10 0.11 0.11 0.07 0.05 0.05 0.05 0.03 0.02 0.02 0.02 0.03 0.03 0.03 0.02 0.04 0.04 0.04 0.03 0.05 0.05 0.03 0.03 0.02 0.02 0.02 0.02
0.00 0.00 0.00 0.01 0.01 0.01 0.01 0.01 0.01 0.01 0.01 0.01 0.01 0.01 0.02 0.03 0.04 0.05 0.06 0.09 0.09 0.09 0.09 0.09 0.10 0.08 0.07 0.06 0.04 0.03 0.02 0.01 0.01 0.01 0.01 0.01 0.01 0.02 0.06 0.07 0.05 0.05 0.05 0.04 0.04 0.05 0.04 0.03 0.03
0.00 0.00 0.00 0.02 0.01 0.01 0.01 0.01 0.01 0.01 0.01 0.02 0.02 0.02 0.04 0.04 0.03 0.05 0.05 0.09 0.11 0.10 0.08 0.07 0.08 0.08 0.07 0.07 0.05 0.05 0.03 0.03 0.02 0.02 0.01 0.01 0.01 0.01 0.03 0.05 0.06 0.05 0.05 0.06 0.06 0.05 0.04 0.03 0.02
0.00 0.00 0.02 0.02 0.02 0.02 0.02 0.01 0.00 0.01 0.01 0.01 0.02 0.04 0.05 0.04 0.03 0.04 0.04 0.07 0.13 0.14 0.12 0.10 0.09 0.08 0.07 0.07 0.06 0.06 0.05 0.04 0.04 0.03 0.02 0.01 0.01 0.02 0.03 0.04 0.04 0.04 0.04 0.05 0.05 0.03 0.03 0.03 0.03
0.00 0.01 0.03 0.02 0.03 0.02 0.01 0.00 0.00 0.01 0.00 0.01 0.01 0.03 0.05 0.03 0.03 0.03 0.04 0.05 0.10 0.14 0.13 0.13 0.12 0.10 0.09 0.07 0.06 0.07 0.07 0.06 0.05 0.04 0.02 0.01 0.01 0.01 0.02 0.04 0.04 0.04 0.03 0.03 0.03 0.02 0.02 0.02 0.03
0.00 0.01 0.01 0.01 0.01 0.01 0.00 0.00 0.00 0.00 0.00 0.00 0.01 0.02 0.03 0.03 0.02 0.02 0.02 0.03 0.06 0.08 0.11 0.11 0.11 0.10 0.08 0.07 0.08 0.08 0.07 0.07 0.06 0.04 0.02 0.02 0.01 0.01 0.02 0.04 0.04 0.04 0.03 0.02 0.03 0.03 0.02 0.02 0.03
0.01 0.01 0.00 0.00 0.00 0.00 0.00 0.00 0.00 0.00 0.00 0.00 0.01 0.01 0.02 0.02 0.02 0.02 0.02 0.02 0.03 0.03 0.05 0.07 0.08 0.08 0.08 0.07 0.09 0.09 0.07 0.06 0.06 0.04 0.02 0.02 0.02 0.02 0.02 0.03 0.03 0.03 0.04 0.03 0.03 0.04 0.03 0.04 0.04
0.01 0.00 0.00 0.00 0.01 0.01 0.01 0.00 0.01 0.01 0.00 0.00 0.01 0.01 0.01 0.01 0.01 0.01 0.01 0.01 0.02 0.02 0.03 0.04 0.05 0.06 0.06 0.05 0.05 0.05 0.05 0.04 0.04 0.03 0.01 0.02 0.02 0.02 0.03 0.03 0.03 0.02 0.03 0.03 0.04 0.03 0.04 0.06 0.05
0.00 0.00 0.00 0.00 0.00 0.01 0.01 0.01 0.01 0.01 0.01 0.01 0.01 0.01 0.01 0.01 0.01 0.01 0.00 0.01 0.02 0.02 0.02 0.03 0.03 0.03 0.03 0.03 0.03 0.03 0.03 0.02 0.02 0.02 0.01 0.01 0.01 0.01 0.02 0.03 0.03 0.03 0.03 0.03 0.04 0.05 0.06 0.06 0.07
0.00 0.00 0.00 0.00 0.00 0.00 0.00 0.00 0.01 0.01 0.00 0.00 0.00 0.01 0.01 0.01 0.01 0.01 0.00 0.01 0.01 0.01 0.01 0.01 0.02 0.02 0.01 0.02 0.02 0.04 0.02 0.01 0.01 0.02 0.02 0.01 0.01 0.01 0.01 0.02 0.03 0.03 0.03 0.03 0.03 0.03 0.04 0.06 0.07
MSLP
1011.11 1012.18 1013.37 1014.52 1015.51 1016.23 1016.64 1016.72 1016.54 1016.18 1015.78 1015.42 1015.19 1015.13 1015.20 1015.35 1015.50 1015.57 1015.49 1015.25 1014.86 1014.37 1013.86 1013.40 1013.04 1012.81 1012.71 1012.69 1012.71 1012.71 1012.69 1012.61 1012.51 1012.41 1012.35 1012.36 1012.45 1012.61 1012.81 1013.02 1013.21 1013.36 1013.45 1013.51 1013.55 1013.59 1013.66 1013.75 1013.86
1011.64 1012.86 1014.11 1015.25 1016.13 1016.68 1016.85 1016.69 1016.28 1015.73 1015.19 1014.76 1014.52 1014.48 1014.61 1014.84 1015.08 1015.24 1015.26 1015.11 1014.82 1014.43 1014.00 1013.61 1013.31 1013.11 1013.02 1013.00 1013.01 1013.03 1013.02 1012.98 1012.92 1012.88 1012.86 1012.90 1012.98 1013.11 1013.25 1013.39 1013.50 1013.57 1013.60 1013.62 1013.64 1013.68 1013.75 1013.85 1013.97
1012.27 1013.56 1014.79 1015.82 1016.54 1016.87 1016.81 1016.43 1015.83 1015.16 1014.54 1014.09 1013.87 1013.88 1014.07 1014.36 1014.67 1014.89 1014.98 1014.92 1014.71 1014.42 1014.10 1013.80 1013.57 1013.43 1013.37 1013.37 1013.39 1013.41 1013.42 1013.40 1013.38 1013.37 1013.38 1013.42 1013.48 1013.57 1013.65 1013.71 1013.74 1013.74 1013.72 1013.70 1013.71 1013.75 1013.83 1013.95 1014.09
1012.95 1014.21 1015.34 1016.20 1016.71 1016.81 1016.55 1015.99 1015.28 1014.56 1013.95 1013.54 1013.39 1013.46 1013.71 1014.05 1014.38 1014.63 1014.76 1014.74 1014.61 1014.40 1014.18 1013.98 1013.84 1013.77 1013.76 1013.78 1013.82 1013.85 1013.86 1013.85 1013.85 1013.85 1013.86 1013.90 1013.94 1013.98 1014.00 1013.99 1013.95 1013.90 1013.85 1013.81 1013.82 1013.87 1013.96 1014.10 1014.25
1013.59 1014.74 1015.70 1016.35 1016.63 1016.53 1016.11 1015.46 1014.72 1014.04 1013.51 1013.22 1013.16 1013.32 1013.63 1013.98 1014.32 1014.55 1014.67 1014.67 1014.58 1014.44 1014.31 1014.20 1014.15 1014.15 1014.19 1014.24 1014.28 1014.30 1014.31 1014.30 1014.29 1014.29 1014.30 1014.32 1014.34 1014.34 1014.32 1014.26 1014.18 1014.09 1014.02 1013.98 1013.99 1014.05 1014.15 1014.29 1014.45
1014.09 1015.08 1015.83 1016.26 1016.33 1016.07 1015.56 1014.90 1014.23 1013.66 1013.30 1013.16 1013.25 1013.50 1013.85 1014.21 1014.51 1014.70 1014.78 1014.76 1014.68 1014.59 1014.52 1014.49 1014.51 1014.57 1014.64 1014.71 1014.75 1014.76 1014.74 1014.72 1014.70 1014.69 1014.70 1014.71 1014.70 1014.68 1014.63 1014.54 1014.44 1014.34 1014.26 1014.22 1014.23 1014.29 1014.39 1014.53 1014.67
1014.38 1015.19 1015.73 1015.95 1015.86 1015.50 1014.97 1014.38 1013.85 1013.47 1013.31 1013.37 1013.60 1013.95 1014.34 1014.68 1014.92 1015.05 1015.07 1015.01 1014.93 1014.86 1014.83 1014.85 1014.93 1015.02 1015.12 1015.18 1015.21 1015.20 1015.16 1015.12 1015.08 1015.06 1015.06 1015.06 1015.05 1015.01 1014.94 1014.85 1014.73 1014.62 1014.54 1014.50 1014.51 1014.57 1014.66 1014.76 1014.88
1014.45 1015.07 1015.42 1015.48 1015.28 1014.89 1014.41 1013.94 1013.60 1013.45 1013.50 1013.75 1014.13 1014.56 1014.96 1015.28 1015.47 1015.52 1015.48 1015.38 1015.27 1015.21 1015.21 1015.27 1015.37 1015.48 1015.58 1015.64 1015.64 1015.61 1015.55 1015.49 1015.44 1015.41 1015.41 1015.41 1015.39 1015.35 1015.28 1015.17 1015.05 1014.94 1014.86 1014.81 1014.81 1014.85 1014.91 1014.99 1015.06
1014.30 1014.78 1014.98 1014.93 1014.69 1014.32 1013.94 1013.64 1013.49 1013.55 1013.80 1014.21 1014.70 1015.18 1015.59 1015.87 1016.00 1016.00 1015.90 1015.77 1015.66 1015.60 1015.61 1015.68 1015.80 1015.92 1016.00 1016.04 1016.03 1015.97 1015.90 1015.83 1015.78 1015.76 1015.75 1015.76 1015.75 1015.70 1015.63 1015.52 1015.39 1015.27 1015.18 1015.12 1015.10 1015.12 1015.15 1015.19 1015.22
1014.03 1014.39 1014.51 1014.42 1014.17 1013.88 1013.62 1013.47 1013.51 1013.74 1014.14 1014.65 1015.19 1015.69 1016.09 1016.33 1016.41 1016.37 1016.25 1016.11 1015.99 1015.94 1015.97 1016.05 1016.17 1016.28 1016.35 1016.38 1016.35 1016.28 1016.21 1016.14 1016.10 1016.09 1016.10 1016.11 1016.11 1016.07 1015.98 1015.87 1015.73 1015.60 1015.50 1015.42 1015.39 1015.38 1015.39 1015.40 1015.40
1013.72 1014.03 1014.11 1014.02 1013.82 1013.62 1013.48 1013.47 1013.64 1013.98 1014.45 1015.00 1015.54 1016.02 1016.37 1016.57 1016.63 1016.57 1016.45 1016.32 1016.22 1016.19 1016.23 1016.33 1016.44 1016.54 1016.60 1016.62 1016.58 1016.53 1016.46 1016.41 1016.39 1016.41 1016.44 1016.47 1016.47 1016.43 1016.35 1016.22 1016.08 1015.94 1015.81 1015.73 1015.67 1015.65 1015.64 1015.64 1015.63
1013.49 1013.77 1013.85 1013.80 1013.68 1013.57 1013.54 1013.63 1013.87 1014.25 1014.72 1015.24 1015.73 1016.14 1016.43 1016.60 1016.63 1016.57 1016.48 1016.38 1016.32 1016.32 1016.38 1016.48 1016.59 1016.68 1016.74 1016.76 1016.73 1016.69 1016.65 1016.64 1016.65 1016.69 1016.75 1016.79 1016.81 1016.78 1016.70 1016.57 1016.43 1016.28 1016.15 1016.05 1015.99 1015.96 1015.95 1015.95 1015.94
1013.40 1013.67 1013.78 1013.78 1013.75 1013.73 1013.78 1013.93 1014.19 1014.54 1014.96 1015.39 1015.78 1016.10 1016.32 1016.44 1016.47 1016.43 1016.37 1016.32 1016.30 1016.34 1016.41 1016.51 1016.62 1016.71 1016.78 1016.80 1016.80 1016.80 1016.79 1016.82 1016.87 1016.94 1017.01 1017.08 1017.11 1017.09 1017.02 1016.91 1016.77 1016.62 1016.50 1016.41 1016.35 1016.33 1016.33 1016.34 1016.36
1013.48 1013.75 1013.89 1013.95 1013.99 1014.05 1014.16 1014.34 1014.58 1014.87 1015.18 1015.49 1015.76 1015.98 1016.13 1016.21 1016.23 1016.22 1016.20 1016.19 1016.21 1016.27 1016.35 1016.46 1016.57 1016.66 1016.74 1016.79 1016.82 1016.86 1016.90 1016.95 1017.03 1017.13 1017.22 1017.30 1017.34 1017.34 1017.29 1017.21 1017.09 1016.98 1016.87 1016.79 1016.75 1016.75 1016.77 1016.81 1016.85
1013.68 1013.93 1014.09 1014.21 1014.33 1014.45 1014.61 1014.79 1015.00 1015.20 1015.41 1015.59 1015.74 1015.85 1015.93 1015.97 1016.00 1016.01 1016.02 1016.05 1016.10 1016.16 1016.25 1016.36 1016.47 1016.57 1016.67 1016.75 1016.83 1016.90 1016.98 1017.07 1017.17 1017.27 1017.37 1017.45 1017.50 1017.52 1017.51 1017.46 1017.39 1017.31 1017.25 1017.20 1017.18 1017.20 1017.24 1017.31 1017.38
1013.92 1014.14 1014.32 1014.49 1014.66 1014.86 1015.05 1015.24 1015.40 1015.53 1015.62 1015.68 1015.72 1015.75 1015.77 1015.80 1015.82 1015.85 1015.89 1015.94 1016.00 1016.07 1016.15 1016.25 1016.37 1016.49 1016.62 1016.74 1016.86 1016.98 1017.08 1017.19 1017.28 1017.37 1017.45 1017.53 1017.58 1017.62 1017.64 1017.65 1017.63 1017.61 1017.60 1017.59 1017.60 1017.64 1017.70 1017.78 1017.88
1014.09 1014.28 1014.47 1014.69 1014.94 1015.19 1015.42 1015.61 1015.74 1015.80 1015.80 1015.76 1015.71 1015.67 1015.65 1015.66 1015.70 1015.74 1015.80 1015.86 1015.92 1015.99 1016.06 1016.16 1016.29 1016.43 1016.60 1016.77 1016.94 1017.09 1017.22 1017.32 1017.40 1017.45 1017.50 1017.55 1017.60 1017.65 1017.71 1017.76 1017.81 1017.86 1017.90 1017.93 1017.97 1018.02 1018.09 1018.19 1018.30
1014.11 1014.28 1014.51 1014.79 1015.11 1015.43 1015.70 1015.89 1015.98 1015.98 1015.89 1015.77 1015.65 1015.56 1015.51 1015.52 1015.57 1015.64 1015.71 1015.78 1015.84 1015.90 1015.97 1016.08 1016.22 1016.40 1016.62 1016.85 1017.07 1017.25 1017.40 1017.48 1017.52 1017.53 1017.53 1017.53 1017.56 1017.62 1017.71 1017.81 1017.93 1018.04 1018.13 1018.21 1018.27 1018.34 1018.41 1018.50 1018.61
1013.97 1014.16 1014.44 1014.80 1015.20 1015.58 1015.88 1016.07 1016.12 1016.03 1015.87 1015.66 1015.47 1015.33 1015.27 1015.28 1015.35 1015.45 1015.55 1015.63 1015.70 1015.77 1015.85 1015.97 1016.15 1016.38 1016.65 1016.94 1017.21 1017.44 1017.59 1017.66 1017.66 1017.62 1017.55 1017.51 1017.50 1017.55 1017.66 1017.81 1017.98 1018.15 1018.30 1018.41 1018.50 1018.57 1018.64 1018.72 1018.83
1013.70 1013.95 1014.32 1014.78 1015.27 1015.71 1016.03 1016.18 1016.15 1015.97 1015.69 1015.39 1015.12 1014.93 1014.85 1014.88 1014.98 1015.12 1015.26 1015.38 1015.47 1015.56 1015.67 1015.82 1016.03 1016.32 1016.66 1017.01 1017.34 1017.61 1017.78 1017.84 1017.80 1017.70 1017.58 1017.48 1017.44 1017.48 1017.60 1017.78 1018.00 1018.22 1018.41 1018.55 1018.66 1018.73 1018.79 1018.87 1018.98
1013.40 1013.76 1014.26 1014.84 1015.42 1015.89 1016.19 1016.27 1016.13 1015.81 1015.38 1014.94 1014.57 1014.33 1014.23 1014.27 1014.41 1014.60 1014.80 1014.98 1015.12 1015.25 1015.39 1015.58 1015.85 1016.19 1016.60 1017.02 1017.41 1017.72 1017.91 1017.97 1017.92 1017.78 1017.61 1017.47 1017.40 1017.43 1017.55 1017.75 1017.99 1018.25 1018.47 1018.64 1018.76 1018.84 1018.91 1018.98 1019.09
1013.19 1013.70 1014.36 1015.07 1015.72 1016.21 1016.46 1016.42 1016.11 1015.60 1014.98 1014.38 1013.89 1013.56 1013.44 1013.49 1013.68 1013.95 1014.22 1014.46 1014.67 1014.85 1015.04 1015.28 1015.59 1015.98 1016.43 1016.91 1017.35 1017.71 1017.94 1018.02 1017.97 1017.82 1017.64 1017.48 1017.38 1017.39 1017.51 1017.72 1017.98 1018.25 1018.50 1018.69 1018.82 1018.91 1018.98 1019.06 1019.18
1013.18 1013.87 1014.69 1015.52 1016.22 1016.69 1016.84 1016.64 1016.13 1015.39 1014.56 1013.77 1013.13 1012.72 1012.56 1012.64 1012.88 1013.22 1013.58 1013.90 1014.18 1014.42 1014.65 1014.92 1015.26 1015.68 1016.17 1016.68 1017.17 1017.57 1017.84 1017.96 1017.94 1017.81 1017.63 1017.47 1017.37 1017.37 1017.49 1017.69 1017.96 1018.23 1018.49 1018.69 1018.84 1018.94 1019.02 1019.12 1019.25
1013.42 1014.28 1015.24 1016.17 1016.90 1017.31 1017.33 1016.94 1016.21 1015.23 1014.18 1013.19 1012.41 1011.92 1011.73 1011.82 1012.12 1012.54 1012.98 1013.39 1013.74 1014.02 1014.28 1014.56 1014.91 1015.33 1015.82 1016.34 1016.86 1017.29 1017.61 1017.78 1017.80 1017.72 1017.58 1017.43 1017.35 1017.35 1017.45 1017.65 1017.90 1018.17 1018.42 1018.63 1018.79 1018.91 1019.01 1019.12 1019.27
1013.89 1014.89 1015.97 1016.94 1017.66 1017.98 1017.86 1017.28 1016.32 1015.12 1013.87 1012.72 1011.82 1011.26 1011.05 1011.16 1011.52 1012.01 1012.53 1013.00 1013.40 1013.71 1013.98 1014.25 1014.56 1014.95 1015.42 1015.93 1016.44 1016.90 1017.25 1017.47 1017.56 1017.53 1017.44 1017.34 1017.28 1017.28 1017.38 1017.56 1017.79 1018.05 1018.29 1018.49 1018.66 1018.79 1018.92 1019.05 1019.22
1014.51 1015.61 1016.73 1017.70 1018.36 1018.58 1018.30 1017.55 1016.41 1015.04 1013.64 1012.37 1011.40 1010.80 1010.59 1010.74 1011.14 1011.69 1012.27 1012.79 1013.21 1013.53 1013.78 1014.01 1014.27 1014.60 1015.00 1015.47 1015.96 1016.42 1016.80 1017.06 1017.21 1017.25 1017.22 1017.17 1017.14 1017.16 1017.25 1017.41 1017.61 1017.84 1018.06 1018.26 1018.43 1018.58 1018.72 1018.88 1019.07
1015.19 1016.30 1017.40 1018.31 1018.87 1018.97 1018.55 1017.66 1016.40 1014.93 1013.45 1012.14 1011.15 1010.56 1010.38 1010.56 1011.00 1011.59 1012.20 1012.74 1013.16 1013.46 1013.67 1013.85 1014.03 1014.28 1014.61 1015.01 1015.46 1015.89 1016.28 1016.58 1016.78 1016.88 1016.91 1016.91 1016.91 1016.95 1017.03 1017.17 1017.35 1017.54 1017.74 1017.93 1018.11 1018.27 1018.44 1018.62 1018.83
1015.78 1016.83 1017.84 1018.63 1019.06 1019.03 1018.50 1017.53 1016.22 1014.73 1013.26 1011.98 1011.03 1010.49 1010.35 1010.57 1011.05 1011.65 1012.26 1012.79 1013.20 1013.47 1013.63 1013.73 1013.85 1014.01 1014.26 1014.59 1014.97 1015.37 1015.74 1016.06 1016.29 1016.44 1016.53 1016.57 1016.61 1016.66 1016.74 1016.86 1017.01 1017.18 1017.36 1017.54 1017.72 1017.89 1018.08 1018.29 1018.52
1016.20 1017.12 1017.96 1018.59 1018.86 1018.70 1018.10 1017.09 1015.80 1014.37 1012.99 1011.82 1010.98 1010.52 1010.44 1010.69 1011.18 1011.77 1012.36 1012.87 1013.23 1013.46 1013.58 1013.63 1013.68 1013.77 1013.94 1014.19 1014.51 1014.86 1015.21 1015.52 1015.76 1015.95 1016.07 1016.16 1016.22 1016.29 1016.38 1016.49 1016.62 1016.78 1016.94 1017.11 1017.29 1017.48 1017.69 1017.92 1018.18
1016.41 1017.14 1017.78 1018.19 1018.29 1018.02 1017.36 1016.37 1015.15 1013.85 1012.63 1011.61 1010.90 1010.55 1010.54 1010.81 1011.29 1011.85 1012.40 1012.85 1013.18 1013.37 1013.46 1013.47 1013.48 1013.53 1013.64 1013.83 1014.09 1014.39 1014.69 1014.98 1015.22 1015.42 1015.57 1015.69 1015.78 1015.88 1015.98 1016.09 1016.22 1016.37 1016.52 1016.69 1016.88 1017.08 1017.31 1017.56 1017.83
Thickness
5791 5790 5788 5779 5759 5740 5739 5752 5762 5768 5772 5781 5784 5781 5774 5769 5764 5762 5784 5792 5790 5787 5784 5781 5777 5775 5773 5771 5769 5768 5767 5766 5765 5764 5762 5761 5760 5758 5756 5755 5754 5753 5752 5750 5749 5748 5747 5746 5745
5790 5787 5780 5766 5743 5727 5737 5757 5762 5770 5779 5784 5784 5781 5776 5773 5780 5780 5784 5788 5788 5785 5782 5778 5775 5772 5770 5768 5766 5764 5763 5762 5761 5760 5759 5758 5756 5755 5754 5752 5751 5750 5748 5747 5746 5745 5744 5743 5742
5788 5785 5767 5750 5736 5731 5744 5762 5768 5777 5785 5784 5778 5779 5775 5773 5780 5781 5786 5787 5785 5782 5779 5776 5773 5770 5767 5765 5763 5761 5760 5759 5757 5756 5755 5754 5753 5752 5751 5749 5748 5747 5746 5744 5743 5742 5741 5740 5739
5782 5771 5759 5742 5739 5747 5756 5768 5773 5775 5780 5783 5778 5772 5776 5783 5784 5785 5787 5785 5781 5778 5775 5773 5770 5767 5765 5762 5760 5758 5757 5755 5754 5753 5751 5750 5749 5748 5747 5746 5745 5744 5743 5741 5740 5739 5739 5738 5736
5775 5758 5742 5731 5739 5754 5765 5773 5776 5773 5774 5778 5776 5768 5770 5781 5787 5786 5784 5782 5778 5774 5772 5770 5767 5764 5762 5760 5758 5756 5754 5752 5751 5750 5748 5746 5745 5744 5743 5742 5742 5740 5739 5738 5737 5736 5735 5734 5733
5758 5747 5728 5725 5740 5757 5769 5777 5776 5773 5773 5775 5773 5767 5768 5780 5781 5781 5781 5778 5775 5771 5769 5766 5764 5761 5759 5757 5754 5752 5751 5750 5748 5747 5745 5743 5742 5741 5740 5739 5738 5737 5736 5735 5734 5733 5732 5731 5730
5751 5738 5729 5733 5739 5751 5769 5778 5775 5772 5770 5774 5777 5765 5767 5774 5777 5778 5777 5774 5770 5768 5765 5762 5760 5758 5756 5754 5751 5749 5748 5746 5745 5744 5742 5741 5739 5738 5737 5736 5734 5733 5732 5732 5731 5730 5729 5728 5727
5758 5740 5734 5734 5740 5750 5770 5776 5777 5774 5772 5781 5779 5764 5763 5772 5775 5774 5771 5768 5765 5763 5760 5758 5756 5755 5753 5751 5748 5746 5744 5743 5742 5741 5740 5738 5737 5735 5734 5732 5731 5730 5728 5728 5727 5726 5725 5724 5724
5760 5733 5726 5738 5745 5755 5769 5769 5774 5780 5776 5776 5777 5775 5777 5776 5772 5767 5763 5760 5759 5757 5755 5754 5752 5751 5750 5747 5745 5743 5741 5739 5738 5737 5736 5734 5733 5732 5730 5729 5728 5726 5725 5724 5724 5723 5722 5721 5720
5749 5729 5739 5754 5760 5762 5767 5767 5770 5769 5766 5766 5769 5773 5775 5771 5767 5762 5757 5754 5752 5752 5751 5750 5749 5747 5746 5744 5742 5739 5737 5735 5734 5733 5731 5730 5728 5727 5726 5725 5724 5722 5721 5720 5720 5719 5718 5717 5716
5748 5741 5752 5761 5767 5768 5765 5767 5771 5764 5759 5765 5766 5766 5768 5765 5762 5759 5756 5753 5751 5750 5749 5747 5745 5743 5742 5739 5737 5735 5733 5731 5729 5728 5727 5725 5723 5722 5722 5720 5719 5718 5717 5716 5715 5714 5713 5712 5712
5748 5753 5759 5764 5769 5767 5765 5767 5766 5765 5768 5776 5775 5771 5767 5761 5758 5757 5755 5752 5750 5747 5746 5745 5743 5740 5738 5736 5733 5731 5729 5727 5725 5724 5722 5721 5719 5718 5717 5715 5714 5713 5712 5711 5710 5709 5709 5708 5708
5749 5754 5762 5766 5767 5767 5767 5764 5763 5764 5772 5774 5772 5766 5762 5759 5756 5756 5754 5751 5748 5745 5743 5742 5740 5737 5735 5732 5730 5727 5725 5723 5722 5720 5718 5717 5715 5714 5712 5710 5709 5708 5707 5706 5705 5704 5704 5703 5703
5753 5755 5759 5763 5764 5767 5763 5762 5760 5762 5769 5767 5764 5759 5758 5757 5755 5751 5749 5746 5744 5743 5742 5740 5737 5734 5732 5729 5727 5724 5722 5720 5718 5716 5714 5712 5711 5709 5707 5706 5704 5703 5702 5701 5700 5699 5699 5698 5698
5755 5749 5752 5759 5762 5763 5761 5751 5756 5764 5764 5760 5759 5756 5754 5754 5753 5750 5749 5746 5743 5740 5739 5736 5734 5731 5728 5726 5724 5721 5719 5716 5714 5712 5710 5708 5706 5704 5702 5701 5699 5698 5697 5696 5695 5694 5694 5693 5693
5746 5739 5734 5750 5758 5760 5751 5738 5756 5763 5759 5754 5754 5753 5751 5750 5750 5749 5748 5744 5741 5737 5734 5733 5732 5728 5725 5722 5720 5717 5715 5712 5710 5707 5705 5703 5701 5700 5698 5696 5694 5693 5692 5692 5690 5689 5688 5688 5688
5728 5722 5728 5741 5754 5754 5746 5738 5753 5759 5755 5750 5750 5749 5747 5746 5745 5744 5743 5741 5737 5734 5731 5728 5727 5724 5721 5718 5716 5713 5710 5707 5705 5703 5701 5699 5697 5695 5694 5691 5690 5689 5688 5687 5686 5684 5684 5683 5683
5719 5722 5726 5732 5746 5746 5739 5739 5749 5753 5752 5748 5747 5745 5743 5741 5741 5742 5740 5736 5733 5730 5728 5725 5723 5720 5717 5714 5710 5707 5705 5702 5701 5698 5696 5695 5693 5691 5689 5687 5686 5685 5683 5682 5681 5680 5679 5679 5679
5732 5726 5724 5734 5746 5740 5735 5737 5744 5747 5746 5743 5742 5741 5739 5738 5739 5738 5736 5733 5729 5726 5723 5720 5718 5715 5712 5708 5704 5701 5699 5698 5696 5695 5693 5691 5690 5688 5686 5684 5682 5680 5679 5677 5676 5675 5674 5673 5673
5730 5723 5723 5732 5742 5737 5730 5732 5741 5743 5742 5743 5742 5739 5737 5735 5733 5732 5730 5727 5724 5721 5719 5716 5714 5711 5708 5705 5702 5699 5696 5694 5692 5691 5689 5687 5686 5684 5683 5680 5678 5677 5675 5673 5672 5671 5669 5669 5668
5727 5723 5724 5725 5733 5734 5727 5723 5732 5739 5742 5742 5741 5740 5737 5734 5730 5728 5725 5722 5720 5718 5716 5713 5710 5707 5704 5702 5698 5695 5692 5690 5687 5685 5684 5683 5682 5680 5679 5677 5676 5674 5672 5670 5669 5668 5666 5664 5663
5722 5737 5734 5728 5717 5708 5717 5700 5722 5729 5730 5734 5735 5734 5732 5731 5728 5725 5722 5718 5717 5715 5713 5710 5707 5704 5701 5698 5694 5691 5687 5685 5683 5681 5680 5679 5678 5677 5676 5674 5673 5671 5669 5668 5666 5665 5663 5661 5659
5735 5742 5734 5725 5713 5703 5707 5698 5709 5721 5721 5726 5730 5731 5730 5729 5726 5723 5720 5718 5716 5713 5710 5707 5704 5700 5697 5694 5691 5688 5685 5683 5681 5678 5676 5674 5673 5673 5672 5671 5669 5668 5666 5665 5663 5662 5660 5659 5657
5742 5731 5721 5708 5700 5689 5701 5694 5701 5712 5721 5726 5729 5729 5728 5726 5724 5721 5719 5716 5712 5709 5706 5703 5699 5696 5694 5691 5688 5686 5683 5680 5677 5675 5672 5671 5670 5669 5668 5667 5666 5664 5663 5661 5660 5659 5657 5655 5654
5732 5711 5691 5687 5679 5684 5701 5695 5703 5724 5730 5730 5729 5727 5726 5724 5721 5717 5713 5710 5708 5705 5703 5699 5695 5692 5690 5688 5686 5683 5681 5679 5676 5673 5670 5668 5666 5665 5665 5664 5663 5661 5660 5659 5657 5656 5654 5652 5651
5725 5715 5691 5679 5675 5683 5694 5691 5711 5729 5733 5733 5730 5727 5724 5720 5717 5715 5712 5709 5706 5703 5699 5696 5692 5689 5686 5684 5682 5681 5679 5677 5674 5672 5668 5666 5665 5664 5663 5662 5660 5659 5657 5656 5654 5652 5651 5650 5649
5721 5712 5714 5691 5685 5678 5684 5698 5715 5727 5726 5726 5724 5722 5718 5717 5715 5713 5711 5707 5704 5700 5697 5693 5690 5687 5684 5682 5680 5678 5676 5674 5672 5669 5667 5666 5664 5663 5661 5660 5658 5656 5655 5653 5651 5649 5648 5647 5646
5731 5717 5698 5686 5674 5671 5684 5691 5699 5715 5718 5719 5718 5717 5716 5714 5713 5711 5708 5705 5701 5698 5694 5691 5688 5685 5682 5680 5678 5676 5675 5673 5671 5668 5666 5664 5663 5661 5659 5658 5656 5654 5652 5650 5648 5646 5645 5644 5643
5718 5711 5698 5685 5683 5672 5670 5687 5718 5720 5720 5717 5717 5716 5714 5712 5710 5707 5705 5702 5699 5695 5692 5688 5685 5682 5680 5678 5676 5674 5673 5671 5669 5666 5665 5663 5661 5659 5657 5656 5654 5652 5650 5648 5646 5644 5642 5641 5640
5726 5715 5700 5688 5681 5676 5673 5689 5726 5724 5723 5720 5717 5715 5713 5711 5708 5705 5702 5699 5695 5692 5689 5686 5683 5680 5678 5677 5675 5673 5670 5668 5666 5664 5663 5661 5659 5658 5656 5654 5652 5650 5649 5647 5644 5643 5641 5639 5638